TimeEDT,TemperatureF,Dew PointF,Humidity,Sea Level PressureIn,VisibilityMPH,Wind Direction,Wind SpeedMPH,Gust SpeedMPH,PrecipitationIn,Events,Conditions,WindDirDegrees,DateUTC
12:35 AM,59.0,53.6,82,29.87,10.0,NNW,10.4,-,N/A,,Overcast,330,2011-04-24 04:35:00
12:54 AM,59.0,51.1,75,29.88,10.0,North,13.8,-,N/A,,Overcast,350,2011-04-24 04:54:00
1:54 AM,55.0,45.0,69,29.91,10.0,NNW,6.9,-,N/A,,Overcast,330,2011-04-24 05:54:00
2:54 AM,53.1,45.0,74,29.94,10.0,WNW,4.6,-,N/A,,Overcast,300,2011-04-24 06:54:00
3:54 AM,50.0,43.0,77,29.96,10.0,West,5.8,-,N/A,,Mostly Cloudy,280,2011-04-24 07:54:00
4:54 AM,51.1,42.1,71,29.97,10.0,NNW,8.1,-,N/A,,Mostly Cloudy,340,2011-04-24 08:54:00
5:54 AM,48.0,41.0,77,30.00,10.0,WNW,4.6,-,N/A,,Scattered Clouds,290,2011-04-24 09:54:00
6:54 AM,48.9,42.1,77,30.01,10.0,West,6.9,-,N/A,,Mostly Cloudy,270,2011-04-24 10:54:00
7:54 AM,50.0,42.1,74,30.03,10.0,West,8.1,-,N/A,,Overcast,260,2011-04-24 11:54:00
8:54 AM,51.1,41.0,68,30.02,10.0,West,6.9,-,N/A,,Overcast,270,2011-04-24 12:54:00
9:54 AM,51.1,41.0,68,30.04,10.0,WNW,4.6,-,0.00,Rain,Light Rain,300,2011-04-24 13:54:00
10:54 AM,51.1,42.1,71,30.06,10.0,North,4.6,-,0.00,Rain,Light Rain,360,2011-04-24 14:54:00
11:54 AM,50.0,44.1,80,30.06,10.0,NNE,4.6,-,0.02,Rain,Light Rain,20,2011-04-24 15:54:00
12:54 PM,51.1,44.1,77,30.05,10.0,Calm,Calm,-,0.01,Rain,Light Rain,0,2011-04-24 16:54:00
1:54 PM,52.0,45.0,77,30.05,10.0,Calm,Calm,-,0.00,Rain,Light Rain,0,2011-04-24 17:54:00
2:54 PM,52.0,45.0,77,30.03,10.0,NNE,3.5,-,0.01,,Overcast,20,2011-04-24 18:54:00
3:44 PM,51.8,44.6,76,30.04,10.0,North,5.8,-,N/A,,Overcast,10,2011-04-24 19:44:00
3:54 PM,52.0,45.0,77,30.03,10.0,East,4.6,-,N/A,,Overcast,80,2011-04-24 19:54:00
4:54 PM,52.0,43.0,71,30.03,10.0,Calm,Calm,-,N/A,,Overcast,0,2011-04-24 20:54:00
5:54 PM,52.0,43.0,71,30.03,10.0,Calm,Calm,-,0.00,,Overcast,0,2011-04-24 21:54:00
6:06 PM,51.8,42.8,71,30.02,10.0,Calm,Calm,-,N/A,,Overcast,0,2011-04-24 22:06:00
6:54 PM,53.1,43.0,69,30.03,10.0,Calm,Calm,-,N/A,,Overcast,0,2011-04-24 22:54:00
7:54 PM,52.0,43.0,71,30.04,10.0,Calm,Calm,-,N/A,,Overcast,0,2011-04-24 23:54:00
8:54 PM,50.0,43.0,77,30.04,10.0,Calm,Calm,-,N/A,,Mostly Cloudy,0,2011-04-25 00:54:00
9:54 PM,46.9,43.0,86,30.06,10.0,Calm,Calm,-,N/A,,Mostly Cloudy,0,2011-04-25 01:54:00
10:54 PM,44.1,42.1,93,30.07,10.0,Calm,Calm,-,N/A,,Mostly Cloudy,0,2011-04-25 02:54:00
11:34 PM,44.6,42.8,93,30.07,2.5,Calm,Calm,-,N/A,,Scattered Clouds,0,2011-04-25 03:34:00
11:41 PM,44.6,42.8,93,30.07,10.0,Calm,Calm,-,N/A,,Scattered Clouds,0,2011-04-25 03:41:00
11:54 PM,45.0,43.0,93,30.07,6.0,Calm,Calm,-,N/A,,Mostly Cloudy,0,2011-04-25 03:54:00